FW2487 Weather Reports


Display with metric or nautical units.
time (UTC)temp
F
wind
direction
speed
MPH
gust
MPH
rain 1hr
in
rain 24hr
in
rain mn
in
humidity
%
barometer
mb
20260901160031 53 202 0.0 1.0 0.00 0.00 0.00 88 1011.0
20260901153041 50 225 1.0 2.0 0.00 0.00 0.00 89 1010.9
20260901151531 49 225 1.0 2.0 0.00 0.00 0.00 89 1010.8
20260901150143 49 203 1.0 2.0 0.00 0.00 0.00 88 1010.7
20260901144530 49 187 3.0 4.0 0.00 0.00 0.00 88 1010.6
20260901143030 48 173 3.0 5.0 0.00 0.00 0.00 87 1010.5
20260901141530 48 151 3.0 4.0 0.00 0.00 0.00 87 1010.5
20260901140106 48 157 3.0 5.0 0.00 0.00 0.00 87 1010.4
20260901134531 48 171 3.0 5.0 0.00 0.00 0.00 86 1010.2
20260901133028 48 180 3.0 5.0 0.00 0.00 0.00 85 1010.1
20260901131531 48 158 4.0 5.0 0.00 0.00 0.00 85 1010.0
20260901130029 48 145 3.0 4.0 0.00 0.00 0.00 84 1009.9
20260901124529 48 158 4.0 9.0 0.00 0.00 0.00 84 1009.8
20260901123031 48 169 3.0 7.0 0.00 0.00 0.00 83 1009.9
20260901121533 48 171 3.0 5.0 0.00 0.00 0.00 82 1009.8
20260901114531 49 171 3.0 4.0 0.00 0.00 0.00 82 1009.8
20260901113029 49 168 3.0 6.0 0.00 0.00 0.00 82 1009.8
20260901111533 49 162 3.0 5.0 0.00 0.00 0.00 81 1009.7
20260901110105 49 163 4.0 6.0 0.00 0.00 0.00 82 1009.8
20260901104530 49 186 2.0 4.0 0.00 0.00 0.00 81 1009.7
20260901103033 49 157 3.0 5.0 0.00 0.00 0.00 81 1009.8
20260901101529 49 164 3.0 5.0 0.00 0.00 0.00 80 1009.8
20260901100031 50 137 1.0 4.0 0.00 0.00 0.00 79 1009.8
20260901094531 50 145 2.0 4.0 0.00 0.00 0.00 80 1009.8
20260901093030 50 165 3.0 5.0 0.00 0.00 0.00 80 1009.8
20260901091646 51 168 4.0 5.0 0.00 0.00 0.00 78 1009.8
20260901090031 51 170 2.0 5.0 0.00 0.00 0.00 77 1009.7
20260901084530 52 168 2.0 4.0 0.00 0.00 0.00 77 1009.7
20260901083145 52 181 3.0 5.0 0.00 0.00 0.00 77 1009.9
20260901081531 52 185 2.0 7.0 0.00 0.00 0.00 77 1009.9
20260901080029 51 159 3.0 8.0 0.00 0.00 0.00 80 1009.8
20260901074530 51 168 2.0 5.0 0.00 0.00 0.00 80 1009.7
20260901073032 52 150 2.0 4.0 0.00 0.00 0.00 79 1009.6
20260901071529 52 158 3.0 4.0 0.00 0.00 0.00 78 1009.7
20260901070032 53 146 2.0 3.0 0.00 0.00 0.00 76 1009.7
20260901064531 53 154 4.0 5.0 0.00 0.00 0.00 77 1009.8
20260901063107 53 157 2.0 5.0 0.00 0.00 0.00 77 1009.9
20260901061530 53 178 2.0 4.0 0.00 0.00 0.00 76 1010.0
20260901054608 54 145 3.0 5.0 0.00 0.00 0.00 76 1010.0
20260901053031 55 166 3.0 4.0 0.00 0.00 0.00 76 1010.0
20260901051532 55 159 3.0 5.0 0.00 0.00 0.00 75 1009.9
20260901044530 57 194 1.0 4.0 0.00 0.00 0.00 70 1010.0
20260901043029 58 166 2.0 6.0 0.00 0.00 0.00 70 1009.8
20260901040029 59 168 5.0 6.0 0.00 0.00 0.00 69 1009.6
20260901034532 60 159 5.0 6.0 0.00 0.00 0.00 67 1009.5
20260901033033 62 156 4.0 5.0 0.00 0.00 0.00 65 1009.3
20260901031533 64 157 3.0 5.0 0.00 0.00 0.00 62 1009.3
20260901030032 64 185 3.0 6.0 0.00 0.00 0.00 62 1009.1
20260901024645 65 162 5.0 7.0 0.00 0.00 0.00 61 1009.0
20260901021607 67 166 4.0 6.0 0.00 0.00 0.00 58 1008.8
20260901020032 69 163 4.0 5.0 0.00 0.00 0.00 53 1008.7
20260901014529 74 238 2.0 4.0 0.00 0.00 0.00 41 1008.6
20260901011529 80 280 3.0 8.0 0.00 0.00 0.00 31 1008.6
20260901010030 81 287 3.0 10.0 0.00 0.00 0.00 31 1008.6
20260901004529 81 295 2.0 7.0 0.00 0.00 0.00 31 1008.8
20260901003033 81 305 3.0 11.0 0.00 0.00 0.00 30 1008.8
20260901001529 81 339 6.0 12.0 0.00 0.00 0.00 31 1008.8
20260901000031 81 348 6.0 12.0 0.00 0.00 0.00 31 1008.9
20260831234531 81 325 4.0 13.0 0.00 0.00 0.00 31 1009.0
20260831233107 81 2 7.0 14.0 0.00 0.00 0.00 31 1009.1
20260831231531 80 334 5.0 11.0 0.00 0.00 0.00 34 1009.2
20260831230104 81 329 5.0 10.0 0.00 0.00 0.00 34 1009.4
20260831224529 81 337 6.0 11.0 0.00 0.00 0.00 34 1009.6
20260831223109 81 359 6.0 14.0 0.00 0.00 0.00 33 1009.8
20260831221603 81 351 5.0 11.0 0.00 0.00 0.00 34 1010.0
20260831220030 80 349 6.0 11.0 0.00 0.00 0.00 34 1010.1
20260831214530 80 15 9.0 17.0 0.00 0.00 0.00 36 1010.3
20260831213147 79 359 8.0 14.0 0.00 0.00 0.00 36 1010.5
20260831211534 79 343 8.0 15.0 0.00 0.00 0.00 36 1010.6
20260831210029 78 341 6.0 13.0 0.00 0.00 0.00 37 1010.7
20260831201603 77 6 9.0 15.0 0.00 0.00 0.00 37 1011.5
20260831200026 77 11 10.0 19.0 0.00 0.00 0.00 38 1011.6
20260831194532 77 12 9.0 16.0 0.00 0.00 0.00 39 1011.8
20260831193030 75 14 9.0 22.0 0.00 0.00 0.00 41 1012.0
20260831191531 74 348 8.0 15.0 0.00 0.00 0.00 42 1012.4
20260831190031 72 343 7.0 11.0 0.00 0.00 0.00 45 1012.7
20260831184530 71 334 7.0 14.0 0.00 0.00 0.00 46 1012.9
20260831183031 71 331 6.0 12.0 0.00 0.00 0.00 46 1013.2
20260831181531 70 303 3.0 9.0 0.00 0.00 0.00 49 1013.4
20260831180029 69 274 2.0 6.0 0.00 0.00 0.00 52 1013.7
20260831174605 68 274 2.0 4.0 0.00 0.00 0.00 54 1013.8
20260831171532 67 260 1.0 4.0 0.00 0.00 0.00 54 1014.2
20260831170031 66 91 0.0 2.0 0.00 0.00 0.00 57 1014.4
20260831164530 65 69 0.0 2.0 0.00 0.00 0.00 59 1014.6
20260831163105 63 67 0.0 1.0 0.00 0.00 0.00 60 1014.8
20260831161537 62 67 0.0 1.0 0.00 0.00 0.00 68 1014.9